Wetbulb
73.84 74.53 74.28 73.73 73.86 73.70 73.55 73.69 73.33 73.22 72.95 73.11 73.19 72.42 73.25 73.71 73.15 71.88 72.09 71.80 72.08 73.15 72.29 71.38 71.20 71.01 70.82 71.03 71.87 71.94 71.90 71.91 71.65 70.71 70.85 69.74 70.79 70.33 70.54 69.95 69.05 69.69 70.52
74.29 73.96 74.35 74.03 73.65 73.44 73.30 73.50 73.17 73.09 73.08 72.77 72.33 72.35 72.14 72.93 73.24 71.93 72.31 71.57 71.55 72.13 72.55 71.64 71.24 70.95 70.49 70.28 70.77 70.89 70.80 71.05 70.89 70.02 69.56 69.41 69.74 70.03 68.26 68.36 68.69 70.96 70.11
72.19 72.99 73.22 73.99 73.48 73.60 73.67 73.51 73.05 72.74 72.19 72.07 72.47 72.35 72.37 72.01 71.93 72.51 72.17 72.62 72.04 71.71 71.99 72.76 71.55 71.01 70.72 70.27 70.53 70.97 70.41 69.83 70.40 69.48 68.74 70.41 69.99 68.49 67.98 70.49 70.19 68.69 68.01
66.84 68.70 71.22 72.76 72.90 73.30 73.57 73.25 73.15 73.02 72.78 72.57 72.08 72.16 72.53 73.02 72.50 72.02 72.00 72.18 72.28 72.38 72.30 72.34 72.51 71.60 70.98 70.66 70.09 70.54 70.14 70.24 70.47 70.48 70.75 69.81 69.05 68.58 68.21 67.97 68.01 68.93 69.01
62.68 66.54 68.46 70.14 70.02 70.39 71.10 71.61 71.39 70.93 71.25 72.43 72.85 72.65 72.24 71.75 71.67 72.26 72.68 72.69 72.48 72.18 72.06 71.98 72.09 72.23 72.19 71.19 70.63 69.85 69.95 70.14 70.42 71.05 71.53 70.25 70.01 69.21 68.33 69.39 68.15 69.16 67.93
57.49 62.01 65.81 67.38 67.53 67.88 68.12 68.59 68.48 68.56 68.94 69.80 70.60 71.69 72.11 72.11 72.11 72.05 71.72 71.52 72.01 72.06 72.30 72.05 71.79 72.18 72.32 72.41 71.52 70.75 69.80 70.06 70.22 71.31 71.58 70.53 69.71 69.48 68.49 69.09 68.24 67.65 67.93
55.28 56.58 58.54 63.69 64.56 65.19 65.36 65.49 65.44 65.31 65.57 66.09 66.63 68.48 70.43 71.17 71.25 70.58 70.90 71.00 71.07 71.71 71.72 71.61 71.98 72.14 71.88 72.09 72.27 71.78 71.01 70.24 70.24 71.00 71.09 70.48 70.20 69.32 69.51 70.22 69.07 68.36 68.68
53.36 53.61 54.39 57.85 59.76 60.89 61.25 61.60 61.87 62.07 62.36 63.08 63.52 63.49 64.34 65.87 66.07 66.84 67.63 68.41 69.38 69.99 70.17 71.05 71.20 71.35 71.57 71.96 71.89 71.84 72.04 71.56 69.89 70.22 70.65 70.63 71.21 69.45 70.43 70.15 69.59 68.99 68.07
52.27 52.63 53.13 54.84 55.95 57.62 58.60 59.14 59.33 59.46 59.49 59.64 59.92 59.90 60.32 61.26 62.19 63.06 64.36 65.23 66.28 66.43 67.22 67.53 68.39 69.60 70.23 71.09 71.64 71.81 71.52 71.66 70.21 69.65 69.65 70.14 70.97 69.83 70.77 70.57 70.36 69.70 68.70
52.22 52.28 52.50 53.22 53.38 54.84 54.93 57.46 57.37 57.44 57.49 57.04 56.84 57.16 56.68 56.71 58.16 58.74 59.74 60.86 61.90 62.52 63.04 63.70 64.03 65.44 66.90 68.05 69.12 70.27 71.33 71.08 71.02 70.48 69.80 69.63 71.38 70.32 70.75 71.31 70.80 70.06 69.58
52.88 52.78 53.12 53.56 54.13 54.57 54.02 55.00 56.25 56.10 55.55 55.35 55.22 54.90 54.96 54.31 54.78 55.28 55.90 57.25 58.35 58.97 59.49 60.38 60.97 62.19 62.75 64.99 66.39 67.90 69.05 71.00 68.87 70.08 70.48 70.34 70.40 70.21 71.02 71.10 71.20 70.76 70.17
49.76 50.51 51.46 52.07 53.02 53.61 52.66 54.48 55.03 54.94 54.94 54.57 54.41 54.24 53.59 52.92 53.40 53.61 54.14 54.30 55.23 56.38 55.67 56.38 57.16 58.79 59.77 60.79 63.75 66.74 68.51 70.41 70.13 68.43 69.05 70.43 69.86 69.98 71.12 71.02 71.09 71.07 70.79
49.11 50.21 50.70 51.31 52.07 52.01 52.26 53.14 53.44 54.11 54.53 54.34 54.10 54.27 53.91 53.12 53.08 53.43 53.72 53.65 54.25 54.39 54.27 54.44 54.84 55.09 55.51 57.31 59.18 61.68 64.52 65.60 68.95 70.55 69.67 69.27 69.70 69.82 70.27 70.81 70.77 70.70 70.92
47.46 48.75 50.01 50.94 51.08 51.43 52.40 51.47 52.24 52.97 53.99 53.74 54.07 54.45 53.59 52.77 52.47 52.66 52.79 53.22 53.32 53.49 53.10 53.38 53.42 53.65 53.77 53.99 55.54 57.43 59.13 62.05 65.64 67.15 69.34 69.30 69.77 70.24 70.63 70.36 70.92 71.19 70.85
46.17 47.87 48.96 50.03 50.46 50.69 50.61 51.04 51.33 51.83 52.99 53.77 54.10 54.11 53.83 53.10 52.54 52.44 52.39 52.66 52.68 52.74 52.37 52.41 52.45 52.25 52.29 52.68 53.08 53.71 55.67 57.96 59.58 63.10 67.46 68.21 68.98 69.98 70.55 70.90 70.76 70.89 71.30
44.76 45.94 47.49 47.92 49.27 49.63 49.56 50.52 50.99 51.52 52.23 53.34 53.69 53.69 53.30 53.01 52.51 52.22 51.97 52.15 52.13 52.33 52.48 51.79 51.53 51.32 51.55 51.73 51.52 52.33 52.99 54.46 56.06 58.89 61.50 66.40 67.87 68.86 70.20 70.68 71.02 70.97 71.24
44.37 45.23 45.67 46.57 47.61 48.12 48.69 49.07 50.17 50.97 51.63 51.60 52.63 53.40 52.33 52.27 52.10 51.85 51.65 51.36 51.66 52.06 52.13 51.65 51.03 50.88 50.58 50.84 50.65 50.95 51.46 52.10 53.69 55.34 57.93 61.09 65.52 67.39 68.53 69.79 70.44 70.81 70.98
43.69 43.75 44.70 45.33 45.72 46.82 47.28 47.98 48.36 48.97 50.43 51.00 51.00 50.69 50.35 50.03 50.20 51.62 51.30 51.19 51.76 51.97 51.70 51.42 50.85 50.40 50.24 49.52 49.53 49.85 50.12 50.72 51.72 53.11 55.28 57.86 60.95 64.86 67.63 68.32 69.22 70.37 70.78
43.90 44.11 44.53 45.41 45.44 46.18 46.92 47.33 47.88 48.40 48.83 49.93 50.68 50.25 50.29 49.95 49.59 49.62 50.92 51.05 51.26 50.73 50.40 50.45 50.30 50.01 49.15 49.22 48.96 49.12 49.15 49.70 50.45 51.40 52.63 54.49 56.76 60.11 64.56 66.87 67.69 68.87 69.72
44.77 44.84 44.91 45.09 45.51 46.14 47.35 46.98 47.13 47.13 47.64 48.98 49.81 50.16 50.00 49.61 49.25 48.95 48.51 48.54 49.23 48.82 48.96 49.40 49.37 50.08 49.58 48.91 48.65 48.43 49.12 49.66 50.84 51.26 52.14 53.45 55.83 58.48 61.25 63.83 67.61 67.43 68.46
44.51 44.30 44.38 44.37 44.88 45.33 44.88 44.46 44.64 44.14 45.65 46.88 48.05 48.77 48.79 48.86 49.03 48.85 48.28 48.31 48.39 47.91 48.38 48.67 48.14 47.38 47.08 48.12 46.54 47.05 47.51 48.51 48.43 49.38 51.73 52.08 53.06 55.21 58.30 62.16 65.05 67.48 66.66
43.27 43.53 43.61 43.53 43.92 44.39 44.15 44.24 44.63 44.80 45.09 45.58 46.73 47.58 48.35 48.29 48.42 47.98 48.12 47.91 48.13 47.48 47.50 47.37 47.19 45.92 46.24 46.79 44.46 44.95 41.86 44.75 47.05 48.86 52.38 53.97 55.36 55.31 56.11 57.60 61.41 64.33 66.35
42.06 42.52 43.13 43.49 43.82 44.15 44.43 44.46 44.46 45.24 45.23 44.11 44.50 45.44 46.61 47.32 47.54 47.71 48.01 48.04 48.05 47.70 46.51 46.93 46.73 45.94 44.02 45.62 46.07 44.35 41.38 39.88 43.54 46.98 47.70 49.14 52.56 56.46 58.25 60.64 60.96 62.72 64.94
41.76 43.08 43.58 43.80 44.07 44.52 44.66 44.06 42.75 42.61 42.24 43.29 44.04 44.60 45.54 45.83 45.99 46.78 46.86 46.83 46.98 47.05 46.35 46.49 46.66 45.85 45.44 43.45 45.84 46.97 47.42 46.07 41.24 40.36 46.01 47.40 49.66 50.47 55.05 58.22 60.57 63.30 64.72
42.31 42.66 43.18 43.43 43.56 44.06 44.02 43.76 43.45 42.47 43.78 43.77 44.13 43.92 44.26 45.27 45.50 45.53 46.01 45.68 45.32 46.60 46.60 46.29 45.93 45.04 45.41 44.83 45.08 45.33 46.28 46.35 46.18 42.62 40.07 43.39 47.27 49.69 52.67 57.25 57.68 58.10 61.40
42.60 42.95 43.61 42.57 42.65 43.74 43.76 43.80 43.62 42.51 42.23 42.57 43.05 43.02 44.09 44.68 44.99 45.08 45.20 45.19 45.32 45.32 45.23 45.55 45.78 45.62 45.09 45.34 46.02 45.80 44.47 43.78 43.57 43.18 41.83 42.92 44.14 47.78 51.53 53.50 55.36 57.45 57.56
MSLP
1014.33 1014.47 1015.03 1015.14 1015.02 1015.03 1015.07 1014.92 1014.81 1014.77 1014.87 1014.77 1014.62 1014.51 1014.43 1014.34 1014.26 1014.04 1014.10 1014.08 1013.97 1013.98 1013.93 1014.07 1014.15 1014.13 1014.14 1014.23 1014.17 1014.11 1014.10 1014.09 1013.98 1013.98 1013.94 1013.96 1013.91 1013.85 1013.84 1013.86 1013.68 1013.33 1013.91
1014.83 1014.74 1015.22 1015.24 1015.17 1015.03 1015.05 1015.03 1014.99 1014.92 1014.92 1014.85 1014.80 1014.63 1014.46 1014.34 1014.32 1014.29 1014.15 1014.12 1014.04 1014.00 1014.01 1014.04 1014.12 1014.12 1014.15 1014.21 1014.25 1014.22 1014.23 1014.26 1014.16 1014.14 1014.11 1014.07 1014.06 1013.98 1013.92 1013.90 1013.82 1013.83 1014.05
1016.26 1015.61 1015.50 1015.62 1015.49 1015.33 1015.25 1015.08 1015.03 1015.00 1014.93 1014.79 1014.74 1014.57 1014.49 1014.47 1014.34 1014.31 1014.29 1014.20 1014.08 1014.03 1014.01 1014.02 1014.05 1014.09 1014.11 1014.17 1014.17 1014.23 1014.24 1014.23 1014.24 1014.26 1014.12 1013.32 1013.32 1014.01 1013.91 1014.00 1014.05 1014.06 1014.08
1018.02 1017.32 1016.78 1016.43 1016.10 1015.94 1015.74 1015.59 1015.45 1015.28 1015.07 1014.83 1014.65 1014.61 1014.44 1014.31 1014.07 1014.23 1014.16 1014.15 1014.16 1014.08 1014.01 1014.01 1014.00 1013.99 1014.03 1014.05 1014.09 1014.15 1014.16 1014.16 1014.18 1014.25 1013.65 1013.25 1013.23 1013.91 1014.00 1014.01 1014.06 1014.14 1014.15
1019.04 1018.27 1017.77 1017.28 1017.00 1016.69 1016.27 1016.07 1015.98 1015.77 1015.57 1015.23 1014.79 1014.50 1014.37 1014.28 1014.13 1014.14 1014.06 1013.97 1013.92 1013.96 1013.99 1013.94 1014.00 1013.87 1013.91 1013.89 1013.93 1014.01 1014.04 1014.04 1014.04 1013.94 1013.23 1013.41 1013.42 1013.41 1013.89 1014.01 1014.07 1014.24 1014.22
1019.85 1019.09 1018.55 1017.94 1017.58 1017.19 1016.94 1016.75 1016.51 1016.31 1016.11 1015.72 1015.32 1014.94 1014.58 1014.26 1014.05 1014.01 1014.02 1014.05 1013.99 1013.92 1013.90 1013.76 1013.76 1013.81 1013.70 1013.63 1013.67 1013.76 1013.81 1013.90 1013.93 1013.14 1012.80 1013.28 1013.65 1013.52 1013.88 1014.03 1014.08 1014.19 1014.21
1020.10 1019.73 1019.22 1018.76 1018.26 1017.87 1017.65 1017.47 1017.26 1016.92 1016.54 1016.35 1016.05 1015.66 1015.17 1014.87 1014.53 1014.55 1014.29 1014.14 1013.90 1014.00 1013.71 1013.58 1013.45 1013.48 1013.52 1013.52 1013.46 1013.45 1013.54 1013.60 1013.45 1012.78 1012.91 1013.12 1013.34 1013.66 1013.79 1013.90 1014.14 1014.15 1014.14
1020.65 1020.37 1019.89 1019.59 1019.26 1018.84 1018.42 1018.19 1017.92 1017.52 1017.22 1016.87 1016.70 1016.30 1016.00 1015.69 1015.43 1015.15 1014.80 1014.46 1014.20 1014.04 1013.86 1013.63 1013.50 1013.34 1013.25 1013.22 1013.21 1013.27 1013.22 1013.29 1013.07 1012.76 1012.58 1012.72 1013.02 1013.48 1013.61 1013.66 1013.87 1013.93 1013.96
1021.03 1020.72 1020.32 1019.80 1019.41 1019.26 1019.04 1018.88 1018.39 1018.10 1017.66 1017.51 1017.11 1016.76 1016.45 1016.19 1015.93 1015.64 1015.30 1014.99 1014.74 1014.52 1014.27 1013.95 1013.80 1013.55 1013.25 1013.04 1012.93 1012.87 1012.95 1012.97 1012.71 1012.18 1012.18 1012.36 1012.69 1013.23 1013.33 1013.32 1013.55 1013.67 1013.74
1021.10 1020.87 1020.61 1020.24 1019.90 1019.43 1019.27 1019.30 1018.92 1018.58 1018.19 1017.97 1017.56 1017.25 1016.63 1016.20 1016.03 1015.84 1015.65 1015.54 1015.24 1014.96 1014.66 1014.37 1014.07 1013.81 1013.51 1013.29 1013.01 1012.78 1012.48 1012.50 1012.50 1012.05 1011.79 1011.82 1012.28 1012.85 1012.95 1012.93 1013.02 1013.24 1013.38
1021.18 1020.99 1020.80 1020.54 1020.27 1019.97 1019.42 1019.44 1019.06 1018.71 1018.48 1018.16 1017.77 1017.46 1016.59 1016.17 1015.84 1015.62 1015.90 1015.74 1015.40 1015.12 1014.76 1014.44 1014.18 1013.92 1013.59 1013.09 1012.81 1012.61 1012.26 1011.89 1012.18 1012.25 1011.82 1011.51 1012.02 1012.46 1012.62 1012.66 1012.66 1012.81 1013.03
1021.70 1021.50 1021.31 1021.12 1020.78 1020.36 1019.77 1019.64 1019.31 1018.83 1018.43 1018.02 1017.69 1017.34 1016.92 1016.44 1016.36 1016.07 1015.68 1015.57 1015.31 1015.18 1014.70 1014.42 1014.12 1013.77 1013.34 1013.00 1012.45 1012.15 1011.65 1011.82 1011.87 1011.99 1012.00 1011.77 1011.87 1012.25 1012.32 1012.37 1012.42 1012.48 1012.55
1022.49 1022.22 1021.82 1021.57 1021.05 1020.61 1020.26 1019.83 1019.35 1019.00 1018.57 1018.12 1017.78 1017.51 1017.03 1016.54 1016.11 1015.85 1015.56 1015.28 1015.05 1014.82 1014.40 1014.08 1013.71 1013.44 1013.42 1013.15 1012.81 1012.34 1011.96 1011.83 1011.79 1011.55 1011.45 1011.55 1011.81 1011.91 1012.08 1012.12 1012.15 1012.32 1012.37
1022.74 1022.50 1022.18 1021.88 1021.31 1020.87 1020.45 1019.68 1019.23 1018.74 1018.65 1018.24 1017.92 1017.55 1017.10 1016.48 1016.14 1015.93 1015.52 1015.29 1015.10 1014.76 1014.48 1014.10 1013.82 1013.63 1013.33 1012.95 1012.59 1012.27 1011.99 1011.54 1011.05 1011.40 1011.29 1011.22 1011.05 1011.16 1011.41 1011.38 1011.42 1011.74 1012.07
1022.97 1022.70 1022.30 1021.94 1021.43 1020.95 1020.42 1019.69 1019.04 1018.39 1018.12 1017.89 1017.63 1017.25 1017.11 1016.60 1016.19 1015.75 1015.47 1015.27 1014.95 1014.61 1014.14 1014.13 1013.90 1013.58 1013.21 1012.83 1012.45 1012.14 1011.77 1011.47 1011.21 1010.91 1010.99 1010.90 1010.71 1010.64 1010.63 1010.90 1010.80 1010.85 1011.30
1023.32 1022.86 1022.49 1022.13 1021.74 1021.34 1020.59 1019.87 1019.07 1018.38 1017.72 1017.34 1016.90 1016.61 1016.41 1016.07 1015.73 1015.25 1015.02 1014.90 1014.55 1014.42 1014.22 1013.75 1013.70 1013.48 1013.14 1012.75 1012.26 1012.00 1011.85 1011.55 1011.18 1010.79 1010.45 1010.42 1010.46 1010.44 1010.26 1010.07 1010.03 1009.97 1010.37
1023.69 1023.11 1022.64 1022.26 1021.86 1021.26 1020.73 1020.05 1019.41 1018.47 1017.51 1016.87 1016.37 1015.94 1015.74 1015.33 1015.26 1014.78 1014.64 1014.50 1014.42 1014.29 1014.30 1013.65 1013.02 1013.04 1012.86 1012.61 1012.18 1011.76 1011.45 1011.24 1011.00 1010.66 1010.19 1009.89 1009.60 1009.56 1009.58 1009.40 1009.48 1009.20 1009.42
1024.04 1023.29 1022.77 1022.23 1021.50 1020.86 1020.24 1019.67 1019.07 1018.39 1017.62 1016.72 1015.98 1015.47 1015.29 1015.07 1014.94 1014.47 1014.23 1014.06 1014.10 1014.17 1014.13 1013.64 1012.85 1012.74 1012.69 1012.46 1012.04 1011.56 1011.25 1010.98 1010.83 1010.48 1010.06 1009.54 1009.17 1008.84 1008.67 1008.76 1008.65 1008.57 1008.73
1024.17 1023.36 1022.52 1021.85 1021.15 1020.55 1019.97 1019.39 1018.62 1017.73 1017.11 1016.38 1015.57 1014.97 1014.70 1014.54 1014.58 1014.17 1013.74 1013.62 1013.49 1013.50 1013.44 1013.09 1012.48 1012.22 1012.24 1012.13 1011.82 1011.39 1011.10 1010.93 1010.71 1010.35 1009.78 1009.28 1008.95 1008.74 1008.36 1008.16 1008.24 1008.18 1008.20
1023.97 1023.21 1022.46 1021.69 1020.98 1020.23 1019.50 1018.69 1017.98 1017.35 1016.49 1015.85 1015.21 1014.64 1014.41 1014.22 1013.94 1013.75 1013.35 1012.98 1012.86 1012.79 1012.58 1012.40 1011.99 1011.71 1011.75 1011.70 1011.40 1010.92 1010.81 1010.61 1010.40 1009.88 1009.22 1008.69 1008.12 1007.93 1007.72 1007.45 1007.23 1007.30 1007.28
1023.32 1022.53 1021.90 1021.20 1020.54 1019.95 1019.05 1018.22 1017.44 1016.81 1016.22 1015.49 1014.57 1014.09 1013.86 1013.63 1013.50 1013.25 1012.81 1012.39 1012.31 1012.12 1011.80 1011.68 1011.45 1011.36 1011.21 1011.11 1010.75 1010.29 1009.84 1009.74 1009.65 1009.06 1008.41 1007.87 1007.37 1006.99 1006.79 1006.54 1006.48 1006.36 1006.56
1022.83 1022.17 1021.56 1020.84 1020.11 1019.47 1018.77 1017.95 1017.33 1016.53 1015.79 1015.26 1014.75 1014.02 1013.39 1012.94 1012.56 1012.28 1012.11 1011.75 1011.55 1011.23 1011.07 1010.93 1010.79 1010.69 1010.55 1010.50 1010.16 1010.04 1009.24 1008.80 1008.81 1008.12 1007.84 1007.34 1006.59 1006.26 1005.82 1005.72 1005.67 1005.57 1005.82
1022.40 1021.68 1021.10 1020.29 1019.51 1018.81 1018.28 1017.51 1016.71 1015.98 1015.19 1014.45 1013.78 1013.09 1012.64 1012.35 1012.03 1011.76 1011.46 1011.09 1010.68 1010.57 1010.19 1010.13 1010.21 1010.13 1009.83 1009.75 1009.56 1009.59 1009.00 1008.04 1008.00 1008.33 1008.00 1007.33 1007.07 1007.04 1006.22 1005.34 1005.05 1005.08 1005.07
1022.18 1021.47 1020.65 1019.71 1018.85 1018.20 1017.63 1016.78 1016.05 1015.21 1014.29 1013.82 1013.21 1012.65 1012.21 1011.95 1011.53 1011.15 1010.76 1010.52 1010.16 1009.79 1009.48 1009.41 1009.48 1009.51 1009.72 1009.24 1009.20 1009.01 1008.85 1008.63 1008.11 1007.69 1007.62 1007.26 1006.94 1006.45 1006.33 1005.76 1005.37 1004.51 1004.09
1021.70 1020.87 1020.01 1019.02 1018.08 1017.35 1016.64 1015.99 1015.11 1014.23 1013.48 1012.81 1012.42 1011.90 1011.49 1011.04 1010.73 1010.45 1010.08 1009.72 1009.31 1008.99 1008.82 1008.78 1008.87 1008.99 1008.79 1008.57 1008.61 1008.53 1008.18 1008.08 1008.14 1007.99 1007.10 1006.67 1006.28 1005.67 1005.86 1005.49 1005.32 1004.90 1004.43
1020.94 1020.00 1019.00 1018.01 1016.94 1016.29 1015.55 1014.70 1013.94 1013.20 1012.48 1011.75 1011.16 1010.64 1010.23 1009.94 1009.60 1009.31 1009.09 1008.86 1008.51 1008.17 1007.97 1007.92 1008.07 1008.21 1008.03 1007.86 1007.99 1007.96 1007.80 1007.61 1007.39 1007.45 1007.07 1006.40 1006.00 1005.49 1005.58 1005.60 1005.27 1004.69 1004.27
Wind_Speed
7 5 6 4 5 5 5 4 4 4 5 4 3 5 5 6 2 1 1 0 2 0 4 3 3 3 3 3 3 5 5 4 7 6 6 5 5 6 5 7 4 9 6
9 7 10 8 7 5 5 4 4 4 4 4 4 4 5 5 4 1 2 2 2 1 2 3 3 3 3 3 3 3 3 3 4 5 4 5 3 4 3 2 4 11 9
19 15 12 13 10 9 9 9 6 5 4 3 4 3 3 4 4 3 4 4 4 4 3 5 4 4 4 4 4 4 3 2 2 2 3 3 5 3 3 6 5 4 5
17 17 19 23 22 21 20 17 15 12 9 6 5 4 5 5 4 5 4 4 6 7 7 7 6 5 6 6 6 6 6 5 4 4 8 2 3 7 3 3 4 3 5
16 15 16 21 20 21 22 19 18 17 16 15 11 8 5 4 4 5 6 7 6 5 8 9 9 9 8 8 8 8 8 7 7 8 8 4 4 9 4 5 6 5 2
13 13 16 19 19 21 21 19 19 18 17 18 17 15 12 9 12 11 8 6 6 6 7 8 10 11 12 11 10 10 10 10 8 11 6 5 7 6 5 4 1 3 5
12 11 16 21 21 21 21 19 18 17 18 17 17 17 17 16 15 14 14 13 10 12 8 8 10 11 12 14 13 13 12 11 10 8 7 7 8 7 9 8 8 8 7
11 13 14 19 21 21 21 20 19 19 19 18 17 17 16 17 16 16 16 15 13 12 14 14 11 9 11 14 15 15 14 11 11 11 9 8 6 10 11 11 10 10 9
12 13 12 14 16 18 20 19 18 18 18 18 18 17 16 16 15 16 15 16 15 15 14 12 14 15 14 13 14 15 16 13 13 10 9 8 10 13 14 13 13 12 11
11 12 12 11 14 13 13 16 15 15 15 14 13 15 12 10 12 13 14 15 14 14 13 13 14 14 13 13 13 14 13 16 15 13 9 9 9 15 17 16 15 14 13
13 15 15 15 14 14 12 11 13 13 12 11 11 12 10 7 9 9 10 12 13 13 12 13 13 13 14 9 9 12 13 6 8 6 9 9 10 16 19 19 17 16 16
17 17 16 16 15 15 12 13 11 10 9 8 8 10 8 9 7 9 7 9 10 12 9 11 10 10 9 7 7 8 5 7 6 8 7 16 12 18 20 20 19 18 18
16 15 17 16 15 15 11 9 6 6 6 7 9 9 8 7 6 5 5 5 7 8 6 8 7 5 8 7 7 8 8 7 5 6 11 21 22 20 22 22 20 20 21
17 17 17 16 15 15 11 9 9 8 7 7 7 8 7 5 6 7 5 5 5 5 8 7 5 8 9 8 9 10 10 9 6 4 8 16 22 21 23 25 24 24 23
18 17 17 17 16 15 15 11 11 10 8 8 9 8 6 7 7 7 7 6 6 5 5 7 7 8 9 9 9 10 11 11 11 8 5 15 17 22 28 28 26 25 25
19 18 17 17 16 16 14 15 12 11 11 10 10 10 11 8 8 8 8 8 8 6 6 6 6 7 8 9 10 10 11 12 13 13 9 9 15 22 28 28 28 26 26
19 20 19 18 17 17 17 14 13 12 12 11 11 13 13 11 12 11 9 9 9 8 10 8 7 8 8 8 11 10 10 12 12 14 12 10 11 15 20 26 26 28 28
20 20 20 17 19 18 17 14 11 12 13 12 12 11 13 12 13 12 10 10 10 8 9 9 7 7 8 8 9 9 10 11 14 15 14 12 11 11 11 18 25 28 29
20 20 20 20 19 18 17 14 14 14 11 12 13 11 14 13 13 12 11 11 12 10 10 10 9 8 8 9 9 9 10 11 13 13 17 16 15 14 10 15 19 22 28
18 18 19 17 19 19 15 13 12 12 12 11 12 12 15 12 15 12 11 13 12 11 11 10 11 9 9 10 10 10 10 11 11 13 15 15 15 15 15 16 12 12 23
20 20 20 19 19 15 13 13 13 12 13 13 12 15 15 14 15 15 12 13 12 12 12 12 11 12 10 10 10 10 11 11 15 14 13 13 16 16 17 15 12 10 10
23 22 21 21 20 17 14 13 13 13 13 13 13 16 18 18 17 14 15 14 15 12 14 13 12 11 11 10 10 11 12 11 10 11 9 12 15 14 15 18 17 16 13
25 24 22 23 22 19 21 14 13 14 12 13 14 13 14 17 17 15 15 15 15 14 12 13 13 14 12 11 13 10 9 11 10 9 13 12 14 8 11 13 17 17 15
24 23 24 24 24 20 22 17 21 16 16 14 14 14 14 18 18 18 18 17 17 14 15 14 13 13 13 12 10 11 13 13 13 14 11 13 14 13 11 9 11 15 16
26 25 24 26 25 24 23 21 17 19 15 14 14 19 18 17 18 18 19 18 18 14 16 17 15 14 12 12 11 10 12 10 13 12 14 11 12 10 7 9 8 8 14
26 24 23 26 26 25 23 22 19 20 20 17 17 15 14 14 14 17 17 16 16 16 16 15 15 16 14 13 12 12 11 10 11 11 12 14 14 13 9 7 10 8 7
Wind_Direction
12 67 71 50 50 52 46 48 60 55 35 16 38 9 9 9 357 348 117 189 330 83 134 140 149 147 150 158 134 119 114 96 93 95 95 74 71 112 99 123 221 105 83
21 57 49 32 42 46 51 51 44 43 25 29 360 347 343 353 5 303 286 270 269 314 209 175 176 177 181 190 193 166 140 118 123 114 129 139 109 135 124 116 327 96 96
13 21 38 37 38 44 38 34 27 23 20 7 346 335 328 332 335 302 267 281 269 258 249 227 210 205 209 215 212 211 199 188 168 158 224 231 144 139 127 109 113 114 108
19 24 29 37 42 40 43 42 40 31 22 12 354 332 327 321 318 295 280 274 281 280 268 247 239 235 232 231 230 230 234 224 215 215 237 228 219 140 219 169 128 76 122
23 30 34 39 42 41 42 41 39 35 26 20 18 16 334 332 313 316 316 310 296 272 277 279 265 255 241 241 237 240 240 236 237 242 247 236 262 136 218 236 177 148 156
25 27 37 44 42 42 43 42 42 36 29 25 19 16 19 30 24 24 359 313 321 313 301 281 272 259 256 240 237 239 242 241 245 239 228 182 248 118 213 193 234 194 175
30 33 37 36 38 41 40 38 36 35 35 28 27 18 19 28 36 33 33 31 42 13 356 312 286 274 262 259 246 236 235 235 244 240 224 223 223 183 221 210 206 206 197
41 35 30 39 37 35 35 34 32 31 29 28 24 25 25 24 26 29 31 24 27 32 14 9 0 336 297 272 259 250 240 230 226 252 236 229 209 204 223 219 211 217 212
38 33 28 28 29 32 33 25 29 28 29 21 21 21 20 21 23 24 24 24 20 23 22 14 1 355 342 337 293 266 248 236 244 245 238 235 189 216 224 221 215 220 218
39 35 26 19 17 15 17 19 19 19 21 15 15 10 14 9 15 21 15 17 13 18 17 14 6 357 348 333 326 335 286 241 236 249 244 247 186 216 225 228 218 218 224
26 21 14 9 7 2 4 8 1 8 6 2 360 4 345 357 6 359 15 6 6 6 6 6 4 355 347 329 323 327 306 247 218 273 272 227 210 228 232 232 227 219 222
15 12 11 6 1 356 352 352 347 344 350 351 355 353 349 346 356 339 351 353 353 356 349 353 354 340 341 338 328 306 322 308 238 217 242 280 229 239 239 238 238 225 223
6 4 2 359 356 355 351 334 335 330 332 331 340 346 335 334 332 340 335 344 343 346 341 337 337 346 334 329 319 314 311 293 308 265 231 233 248 245 247 245 244 240 231
1 358 352 350 345 343 337 336 325 315 320 310 328 324 323 324 324 324 321 326 326 335 330 330 329 328 321 314 311 308 299 301 294 280 286 260 234 240 248 243 238 238 236
352 350 347 341 338 335 326 324 321 316 296 296 285 296 291 303 302 303 303 305 313 310 318 321 320 321 313 314 306 302 298 296 294 293 281 283 254 236 243 244 241 238 237
341 337 333 333 332 330 323 315 309 305 300 282 280 281 283 277 283 290 295 298 295 303 305 310 314 309 309 306 307 300 294 294 289 285 284 279 266 254 246 243 239 236 236
337 334 332 326 324 321 319 319 311 295 296 290 282 281 280 282 279 285 284 285 287 291 291 287 298 303 302 302 300 303 299 293 290 283 279 278 273 254 252 251 243 240 238
335 334 328 322 319 321 319 313 306 304 292 285 281 277 277 281 284 269 273 275 276 278 277 279 281 289 295 298 300 302 296 296 292 287 281 275 273 274 260 257 249 245 242
333 328 327 324 321 318 316 309 304 298 294 284 277 276 275 276 282 274 268 270 270 269 267 266 268 276 275 284 285 291 296 298 291 284 281 273 267 265 263 253 258 248 242
328 324 321 319 317 318 311 307 302 301 294 292 287 280 283 282 280 281 277 271 269 266 266 264 264 266 274 277 279 286 285 278 286 281 280 278 266 258 256 258 248 252 243
332 327 324 318 315 311 307 305 304 300 297 295 289 282 277 273 275 277 275 274 264 260 263 272 274 274 270 277 287 275 272 284 279 266 266 265 265 259 254 251 250 242 256
328 328 324 317 312 310 305 303 296 292 291 289 287 284 283 280 278 272 268 267 265 266 266 264 269 274 275 276 274 285 283 280 279 269 300 294 276 266 255 253 251 251 241
329 327 321 317 314 311 308 303 297 291 283 283 283 283 283 284 282 276 272 267 264 257 259 264 267 269 272 274 270 269 279 278 300 291 286 289 282 293 305 290 254 250 248
326 323 319 315 312 311 308 298 297 291 289 286 288 283 281 279 275 272 268 264 263 260 259 260 262 259 255 260 259 258 253 272 282 287 278 291 290 276 282 294 292 270 249
325 321 317 314 310 308 307 301 293 288 286 285 280 282 278 276 267 266 263 265 264 257 257 258 262 258 252 249 252 256 253 253 265 274 283 281 284 280 289 283 302 290 303
322 319 316 315 314 311 308 299 290 287 285 284 280 277 272 271 269 264 261 262 264 261 259 257 253 252 252 248 248 250 255 255 257 263 271 279 285 288 291 297 291 294 286